Wind_Speed
8 13 21 21 15 10 7 5 12 7 8 13 16 15 13 16 15 18 19 21 22 24 25 28 27 27 25 25 24 24 23 22 20 18 16 14 13 11 9 9 9 9 9 8
6 19 17 15 12 15 12 6 8 9 5 9 12 17 12 18 21 21 21 21 22 21 22 27 29 29 29 28 27 25 26 25 24 20 19 13 14 11 8 9 10 9 10 9
12 2 16 16 14 15 18 18 9 6 4 9 5 11 12 15 14 17 19 19 19 22 23 23 29 31 30 32 31 29 30 30 29 24 18 17 13 12 11 8 11 12 12 12
12 13 13 18 23 18 19 15 14 11 5 9 10 11 10 15 19 20 20 21 22 23 23 22 28 31 33 33 31 30 32 32 31 30 21 20 19 16 16 13 12 12 12 12
9 10 15 16 19 18 13 8 16 18 13 11 12 7 14 13 16 21 22 23 23 23 24 25 29 36 37 33 32 31 31 33 32 30 28 24 21 18 14 15 16 16 15 12
12 1 11 13 14 18 11 5 11 12 13 17 19 12 14 13 18 18 20 23 24 25 25 24 33 32 33 33 32 31 31 36 37 33 34 31 25 21 18 17 17 17 15 14
2 12 6 6 11 17 16 13 5 8 11 17 16 15 17 8 17 18 19 22 25 25 25 25 25 30 33 35 34 34 32 34 37 37 33 34 33 28 26 24 21 19 19 16
3 8 10 4 10 10 21 18 8 12 12 15 16 12 15 23 14 10 14 18 22 24 24 25 26 32 35 37 37 35 34 34 35 36 36 38 37 28 28 27 24 21 19 19
2 4 3 3 1 7 11 21 19 9 2 9 14 17 16 7 17 18 17 14 19 23 25 28 28 36 36 36 38 37 37 36 36 38 37 36 37 35 29 31 31 23 22 17
2 5 1 3 4 11 9 7 16 13 19 13 8 17 13 20 20 14 11 16 18 20 23 23 24 33 36 39 39 39 39 38 39 38 38 36 37 39 38 30 33 29 27 22
1 2 2 4 5 7 8 10 8 9 17 15 10 9 5 17 15 20 23 20 17 18 21 24 24 34 37 37 37 39 38 37 36 36 36 36 35 34 33 32 33 32 32 28
1 1 5 5 2 8 6 5 10 11 13 15 16 17 2 8 7 6 9 13 16 17 19 22 25 30 33 35 38 41 40 39 39 38 37 35 36 34 32 33 31 31 32 31
2 1 4 6 4 4 2 2 0 2 1 13 13 13 9 18 18 11 12 11 7 13 15 16 18 21 28 34 36 38 40 41 41 38 37 35 35 33 34 34 33 31 32 34
2 3 8 8 9 8 5 3 2 4 10 16 16 14 9 10 14 12 9 7 5 5 12 15 17 20 26 32 36 37 38 40 40 39 38 36 35 36 37 35 33 32 34 34
2 5 8 15 14 14 16 18 15 12 9 10 15 16 14 12 13 14 9 8 9 8 7 11 18 18 22 28 32 35 36 36 38 38 37 37 36 37 34 31 32 31 31 34
1 3 5 15 10 11 17 18 18 17 18 12 16 16 7 12 10 10 9 10 9 11 11 11 14 18 20 28 33 36 37 38 39 38 37 36 34 34 33 34 33 31 32 31
3 2 3 8 9 14 11 16 19 13 8 15 13 10 10 9 6 10 13 11 11 12 13 13 13 17 22 32 37 37 41 38 39 38 36 35 35 34 35 33 31 32 32 28
6 4 2 6 10 7 5 12 10 12 5 3 6 7 9 3 6 9 11 13 14 15 16 16 14 15 29 33 34 30 33 37 36 35 34 34 34 33 31 31 30 30 28 29
15 8 4 4 6 16 9 7 6 3 5 6 5 8 10 10 9 2 15 15 13 13 14 16 23 24 25 32 33 32 32 34 33 33 33 34 34 31 30 30 30 29 28 28
15 14 7 6 6 7 5 11 11 6 6 8 10 10 11 8 7 4 17 16 16 12 14 15 18 17 26 30 35 33 32 33 34 36 36 33 32 31 31 32 32 33 32 30
8 9 14 11 8 8 6 14 13 6 3 13 9 10 10 6 5 12 14 15 15 13 15 13 11 4 15 28 32 30 30 33 32 28 28 29 32 33 33 30 28 27 27 25
5 9 6 6 6 13 7 5 5 5 11 11 12 10 10 9 9 11 12 13 15 16 18 20 17 18 11 13 25 25 24 21 24 27 28 29 29 28 26 27 26 27 26 25
3 3 2 4 2 5 5 8 10 9 12 13 13 12 11 10 9 12 12 12 12 14 17 22 20 23 25 23 12 12 9 13 21 24 26 27 27 28 26 26 24 22 23 23
2 1 2 3 2 10 12 9 7 11 13 14 13 12 11 10 10 10 10 10 10 15 17 20 20 22 23 25 24 19 12 5 17 21 21 21 22 23 24 22 22 22 22 23
2 6 4 4 7 12 7 10 11 10 12 11 10 9 9 8 10 9 10 10 10 14 16 15 17 19 21 24 25 23 20 13 9 9 10 15 16 20 19 21 20 21 21 22
5 3 3 3 8 8 7 12 10 9 12 13 10 11 8 7 8 10 9 11 12 15 16 17 18 19 19 21 22 21 20 17 14 13 13 10 4 8 13 15 15 21 20 22
Wind_Direction
181 194 211 206 215 222 218 224 222 212 210 204 219 226 192 181 186 185 187 189 193 197 193 196 197 196 196 199 201 201 202 203 196 193 193 204 206 216 231 232 216 221 221 220
172 220 218 217 218 221 227 227 221 243 234 220 228 234 206 184 198 194 189 195 198 194 194 197 199 199 199 199 202 202 208 205 203 197 193 197 199 209 216 222 213 219 216 222
203 202 193 201 205 215 228 230 218 247 284 240 224 241 201 204 202 199 204 200 201 202 198 198 198 201 200 201 201 201 208 210 209 204 199 205 209 217 215 219 218 218 216 223
227 224 187 201 211 208 227 222 238 250 273 234 214 241 205 196 202 203 202 202 203 204 204 202 203 202 204 205 204 205 206 211 214 211 203 204 206 211 216 213 219 219 217 228
200 194 193 206 217 205 235 225 226 237 249 270 242 246 234 195 206 212 209 207 207 205 203 204 203 205 205 203 204 204 205 209 211 210 208 208 212 217 219 216 223 225 225 226
224 252 204 205 211 197 208 233 224 228 236 244 237 237 241 207 209 218 213 211 209 207 205 206 208 205 206 205 203 203 202 208 213 212 214 214 212 213 215 220 222 224 224 225
270 213 190 213 202 206 207 209 197 209 215 235 217 230 233 226 213 219 207 210 209 208 206 204 204 203 202 203 204 203 201 204 209 213 213 216 220 220 224 225 229 231 233 226
244 196 213 134 227 216 202 205 206 214 218 228 214 233 226 225 228 230 229 216 209 208 209 206 202 201 201 200 199 199 200 203 205 210 212 218 223 222 228 233 234 237 239 236
294 243 332 257 344 202 188 217 224 266 272 241 223 239 255 226 236 232 227 221 213 208 208 207 203 202 200 199 200 200 200 202 203 207 212 216 221 222 225 227 236 238 243 241
96 285 125 299 290 234 229 203 202 226 237 234 210 233 230 204 227 221 210 218 222 212 208 207 207 205 201 199 199 199 202 202 204 206 210 214 218 226 229 228 232 231 239 241
83 271 202 266 199 235 191 210 218 242 228 228 236 234 214 222 223 227 228 222 219 209 205 205 205 204 201 198 196 199 200 202 203 205 208 209 214 218 222 225 233 233 239 240
81 232 265 261 339 304 292 278 249 228 206 236 250 236 245 233 241 224 248 245 242 226 211 203 203 201 201 200 197 196 200 201 204 206 206 209 213 214 218 221 226 231 234 237
183 231 271 238 180 106 80 94 179 264 171 233 225 241 239 264 267 253 268 267 257 237 222 210 203 201 198 198 198 199 199 202 204 203 205 207 208 209 215 220 222 226 231 236
190 252 263 273 341 344 294 257 232 270 225 227 233 260 256 234 271 318 317 305 321 250 219 208 205 203 201 200 199 198 201 202 201 201 204 205 204 207 213 217 218 221 229 232
236 257 281 285 288 285 273 266 257 249 259 236 228 241 259 287 320 321 321 322 314 307 282 225 213 205 201 199 198 200 201 198 198 196 200 204 204 208 211 211 214 219 222 230
185 248 297 292 298 290 271 261 250 243 249 249 262 277 283 318 320 336 344 335 322 313 310 288 243 212 201 199 197 195 194 193 191 195 198 200 201 203 205 209 210 212 219 224
214 231 274 266 333 312 272 249 233 229 216 219 223 229 327 297 349 360 345 338 328 314 304 288 268 235 205 199 193 194 192 188 190 194 196 196 198 200 202 206 208 210 214 218
171 156 242 291 313 245 48 5 221 164 139 232 265 300 310 342 100 39 11 346 335 328 315 301 281 261 219 206 198 195 190 187 189 192 195 195 197 200 201 202 206 210 214 215
216 193 244 258 269 291 292 28 0 4 109 46 10 329 321 313 254 357 5 353 339 320 309 299 284 265 227 203 189 183 184 184 186 192 196 197 197 197 197 201 204 208 211 216
196 218 219 230 262 258 54 340 336 298 179 23 14 358 350 324 193 34 339 339 338 333 335 324 303 244 193 190 182 174 177 182 191 193 196 195 194 195 197 200 203 208 211 219
160 193 223 231 251 284 359 326 317 217 44 330 342 345 358 30 345 316 331 331 331 336 11 4 21 82 178 171 171 172 175 190 196 194 192 192 194 198 202 202 204 205 211 219
166 181 195 219 245 258 20 334 302 319 316 315 315 324 333 339 336 338 337 336 339 347 16 29 46 53 75 157 165 173 182 185 182 184 188 192 195 200 206 204 204 206 208 214
107 287 276 242 273 336 296 279 278 297 307 305 307 309 316 324 336 337 333 344 345 341 3 31 41 56 56 62 106 138 156 178 185 186 189 193 194 199 200 199 204 207 211 216
329 317 226 284 271 299 278 225 280 301 292 293 294 292 301 311 327 334 340 345 338 346 359 15 35 45 45 52 61 61 59 154 191 194 196 197 198 198 200 205 207 209 213 216
298 305 291 269 265 304 189 288 313 325 319 302 313 292 291 308 324 333 333 341 336 347 353 14 27 39 42 44 47 46 49 68 132 162 184 197 192 196 203 204 207 212 217 219
341 4 324 276 303 301 281 324 330 333 320 312 312 318 300 303 317 325 327 335 332 340 349 5 23 28 30 39 42 39 39 41 54 68 79 75 157 167 209 210 214 219 219 223
Height
764 771 766 762 765 764 767 769 764 758 746 752 754 755 762 768 772 775 777 780 782 786 792 799 804 809 815 819 822 826 830 834 837 841 845 848 851 854 855 856 857 859 862 865
771 765 757 761 769 771 769 772 769 755 751 754 750 754 753 762 763 766 771 777 778 784 787 793 799 803 808 813 817 822 826 830 834 839 842 846 848 851 854 855 857 858 861 863
762 755 756 765 770 773 769 771 770 765 753 746 755 760 760 758 760 764 765 769 777 778 781 787 792 797 802 807 811 815 820 826 831 836 840 843 846 849 852 853 855 857 859 862
758 748 758 761 763 766 772 761 767 769 771 770 746 769 755 752 758 760 760 762 764 770 775 781 786 791 795 800 806 811 815 821 827 832 836 840 842 846 849 852 855 856 858 860
752 750 754 762 757 759 762 757 764 767 772 768 760 765 736 743 753 751 749 752 755 758 764 770 775 780 786 794 800 806 811 816 822 827 831 836 840 842 846 850 852 854 856 858
739 740 740 744 745 751 750 759 761 762 767 778 760 762 743 741 740 735 736 742 746 749 755 762 767 775 782 788 795 801 804 809 815 821 826 830 835 839 842 846 849 852 854 856
754 744 737 736 746 745 752 759 777 787 780 769 742 759 743 721 721 717 725 730 734 739 746 751 758 766 773 780 786 792 798 802 808 814 820 824 829 834 837 840 844 847 850 851
766 758 744 743 740 744 751 748 758 777 767 757 742 749 730 714 710 713 712 715 722 730 735 741 747 754 761 768 775 782 789 796 801 807 812 818 823 829 832 835 839 842 844 847
772 758 754 751 747 740 745 749 734 752 755 752 730 730 714 711 709 706 709 712 714 717 723 729 736 743 750 758 765 772 780 787 793 799 805 811 816 821 825 828 832 837 839 843
782 773 759 754 749 741 737 728 756 751 769 767 738 734 723 712 711 705 707 705 703 705 713 720 727 733 739 746 754 763 771 777 783 791 797 803 808 813 818 823 826 830 834 838
782 785 759 758 748 735 745 740 738 733 736 746 750 731 698 702 698 697 692 693 694 696 701 706 713 721 728 738 746 754 762 770 777 784 790 795 801 806 812 816 819 824 829 833
787 785 776 757 751 753 758 745 734 740 742 734 730 722 690 691 692 693 692 688 688 689 689 694 702 714 723 729 736 742 750 759 766 774 781 788 793 799 804 808 812 817 822 827
789 790 777 754 757 755 756 759 757 753 749 737 738 726 692 688 687 688 692 685 687 688 689 694 701 705 711 718 726 733 740 747 756 765 773 779 785 791 795 800 805 810 814 819
790 792 783 762 771 778 772 766 762 756 740 731 724 716 702 694 690 691 692 690 688 690 687 689 693 696 703 710 716 723 730 738 746 755 763 769 775 780 786 791 797 802 806 811
793 790 787 777 778 778 775 769 762 762 749 739 719 720 706 699 707 703 701 697 692 690 690 686 686 688 694 702 708 716 724 732 739 746 753 759 766 772 779 785 790 795 800 803
799 789 790 778 772 768 766 759 756 754 747 745 738 730 712 710 704 703 704 701 697 691 686 687 683 684 688 691 697 704 713 721 730 738 744 752 759 765 770 776 781 787 791 795
797 791 790 776 772 767 755 740 739 736 738 733 731 721 726 711 711 710 706 704 699 695 692 689 685 679 678 680 686 695 701 713 721 729 736 743 749 755 760 767 774 779 783 789
796 804 799 781 776 763 733 733 712 728 743 743 737 733 732 716 712 711 710 707 698 693 687 683 680 674 670 675 683 693 701 706 715 723 730 735 741 747 753 760 765 771 777 781
790 793 789 785 775 749 742 760 757 748 746 746 742 739 737 723 714 709 713 710 705 697 689 680 671 665 663 667 674 684 694 702 709 715 722 727 733 740 747 752 758 763 769 773
788 789 789 782 779 756 764 766 763 757 741 745 745 744 739 716 707 715 716 711 706 699 688 677 662 653 653 660 668 677 686 695 699 704 711 720 727 734 738 744 749 753 759 763
793 794 792 785 782 761 775 772 764 750 749 758 749 747 742 731 733 728 720 714 708 701 688 679 666 656 655 658 665 673 681 685 691 702 710 716 721 725 730 737 742 747 753 757
781 785 788 790 781 769 778 774 770 769 762 756 751 748 744 736 733 729 724 717 709 698 692 682 674 668 664 663 666 671 676 685 692 698 704 709 715 722 727 731 736 740 745 749
784 793 782 781 763 774 775 776 773 768 762 756 752 747 744 737 733 729 726 719 713 708 695 684 681 676 674 672 672 677 681 686 690 695 698 703 708 714 719 724 730 736 740 742
794 794 789 787 775 776 771 771 769 765 761 755 750 746 742 738 733 730 726 722 718 712 702 695 690 684 681 680 681 682 682 685 689 693 696 701 705 710 715 719 722 726 731 734
800 796 790 784 781 778 771 768 763 757 752 749 745 742 740 736 732 730 727 724 721 717 710 704 699 693 690 687 687 686 688 690 693 694 697 700 703 708 713 714 716 718 722 727
797 795 790 779 779 773 767 764 761 755 750 748 745 740 737 735 731 730 726 724 722 717 713 707 703 699 697 695 696 695 694 696 696 696 700 705 708 700 709 711 712 713 715 719